DELTA 1 DEB, 10250

Orbit data source: Space-Track

DELTA 1 DEB, 10250 is space debris in LEO originally from a launch on Thu, 14 Jul 1977 UTC launched from the Air Force Eastern Test Range (AFETR). Debris objects in space refer to the collection of defunct objects orbiting the Earth. Examples of debris include non-operational satellites, rocket bodies, and fragments generated from explosions, collisions, or faulty payload assembly.

Loading next visibility...
Identifier
10250, 1977-065CB
Orbit
LEO
Country
Flag of USUS
Related business
Manufacturer
Unknown
Mission
Spacecraft
Bus & Motor
Unknown
Mass
Unknown
Launch date (UTC)
1977-07-14 (48 years ago)
Launch vehicle
Unknown
Launch site
Air Force Eastern Test Range (AFETR)
Object type
Payload
Rocket body
Debris
Shape & HBR
Unknown shape, 0.2 m
Radar Cross Section
Small (<0.1 m²)

Expand to show TLE details & history
Last TLE update: 14 hours ago

TLE from 14 hours ago
0 DELTA 1 DEB
1 10250U 77065CB  25350.32647212  .00001558  00000-0  28920-3 0  9998
2 10250  29.0768  91.7173 0535724 359.8195   0.2140 13.97447049282531
Epoch: 2025-12-16T07:50Z
TLE epoch observation values (Epoch: 2025-12-16T07:50:07.191Z)
Latitude
-0.00001°
Longitude
-111.02496°
Altitude
511.109 km
Speed
7.811 km/s
True Right ascension
06h 06m 52s
True Declination
0° 00' 00"
Sunlit
Object was in full shadow at epoch
Visualization orbit readout
Latitude
Unknown
Longitude
Unknown
Altitude
Unknown
Speed
Unknown
Apparent Right ascension
Unknown
Apparent Declination
Unknown
Sunlit
N/A
Visualization observer readout
Local Sidereal Time
20:55:55
Azimuth
Unknown
Elevation
Unknown
Doppler factor
Unknown
Orbital elements
Apogee altitude
1,296.838 km
Perigee altitude
516.318 km
Semi-major axis
7,284.715 km
Eccentricity
0.05357
Inclination
29.0768°
RAAN
91.7173°
Arg. of periapsis
359.8195°
True anomaly
0.23857°
Mean anomaly
0.214°
Eccentric anomaly
0.22611°
Mean motion
3.49079 °/min
Orbital period
103.13 mins
BSTAR
0.0002892
Loading maneuver chart data...
Computing Atmospheric mass density...
Loading historical data...
Loading historical data...
Loading historical data...
Loading historical data...
Loading historical data...
Loading historical data...
Loading historical data...

Documentation

Showing up to 5 results
|